DLH117P EDLP-ENBO

Flight info

Callsign DLH117P
Flight time N/A
Altitude 35000
Route HMM9X/06 HMM M170 BASUM DCT ELSOB DCT ALASA M852 ALS P615 ARTOR/N0367F130 P615 NEDZA P601 VEXOM Z101 SOMUB DCT OLISO DCT VABOT DCT KUBUG DCT STM DCT BO601 DCT BALAK DCT UMBOT DCT ADREL DCT TAKUP
Aircraft A320/M-SDE3FGHIRWY/LB1

Departure

Time N/A
Airport Paderborn Lippstadt Airport (EDLP)

Arrival

Time 2026-04-27 21:35
Airport Bodø Airport (ENBO)
Time Latitude Longitude Altitude Speed Heading
2026-04-27 20:48 63.21985 11.68877 35430 ft 401 kts 17°
2026-04-27 20:49 63.27129 11.73475 35442 ft 402 kts 17°
2026-04-27 20:49 63.32323 11.78146 35426 ft 402 kts 17°
2026-04-27 20:50 63.37541 11.82648 35433 ft 401 kts 15°
2026-04-27 20:50 63.42841 11.86433 35433 ft 400 kts 13°
2026-04-27 20:51 63.48169 11.90054 35432 ft 400 kts 13°
2026-04-27 20:51 63.53479 11.93805 35427 ft 400 kts 14°
2026-04-27 20:52 63.58775 11.97658 35428 ft 400 kts 14°
2026-04-27 20:52 63.64068 12.01552 35426 ft 400 kts 14°
2026-04-27 20:53 63.69366 12.05451 35425 ft 400 kts 14°
2026-04-27 20:53 63.74661 12.09339 35422 ft 400 kts 14°
2026-04-27 20:54 63.82613 12.15198 35423 ft 401 kts 14°
2026-04-27 20:55 63.87912 12.19124 35427 ft 401 kts 14°
2026-04-27 20:55 63.93180 12.23057 35424 ft 400 kts 14°
2026-04-27 20:56 63.98470 12.27022 35408 ft 400 kts 14°
2026-04-27 20:56 64.03757 12.31000 35409 ft 400 kts 14°
2026-04-27 20:57 64.09053 12.34995 35410 ft 400 kts 14°
2026-04-27 20:57 64.14343 12.38994 35407 ft 400 kts 14°
2026-04-27 20:58 64.19627 12.43017 35409 ft 400 kts 14°
2026-04-27 20:58 64.24910 12.47062 35407 ft 400 kts 14°
2026-04-27 20:59 64.30167 12.51332 35412 ft 401 kts 17°
2026-04-27 20:59 64.35345 12.56208 35409 ft 402 kts 18°
2026-04-27 21:00 64.40507 12.61214 35408 ft 402 kts 18°
2026-04-27 21:00 64.45685 12.66117 35411 ft 402 kts 17°
2026-04-27 21:01 64.50876 12.70979 35405 ft 402 kts 17°
2026-04-27 21:01 64.56061 12.75860 35415 ft 402 kts 17°
2026-04-27 21:02 64.61212 12.80755 35396 ft 402 kts 17°
2026-04-27 21:02 64.66396 12.85711 35402 ft 402 kts 17°
2026-04-27 21:03 64.71585 12.90674 35391 ft 402 kts 17°
2026-04-27 21:03 64.76860 12.94900 35398 ft 398 kts 11°
2026-04-27 21:04 64.82197 12.98384 35393 ft 398 kts 11°
2026-04-27 21:04 64.87534 13.01884 35394 ft 398 kts 11°
2026-04-27 21:05 64.92868 13.05403 35389 ft 398 kts 11°
2026-04-27 21:05 64.98200 13.08951 35390 ft 398 kts 12°
2026-04-27 21:06 65.03502 13.12503 35391 ft 398 kts 12°
2026-04-27 21:06 65.08844 13.16074 35387 ft 399 kts 12°
2026-04-27 21:07 65.14185 13.19652 35386 ft 399 kts 12°
2026-04-27 21:07 65.19527 13.23253 35387 ft 399 kts 12°
2026-04-27 21:08 65.24875 13.26853 35388 ft 399 kts 12°
2026-04-27 21:08 65.30220 13.30462 35382 ft 399 kts 12°
2026-04-27 21:09 65.35576 13.34119 35159 ft 399 kts 12°
2026-04-27 21:09 65.38242 13.35953 34925 ft 398 kts 12°
2026-04-27 21:09 65.40898 13.37784 34692 ft 396 kts 12°
2026-04-27 21:09 65.43506 13.39579 34465 ft 395 kts 12°
2026-04-27 21:10 65.46141 13.41393 34184 ft 394 kts 12°
2026-04-27 21:10 65.48780 13.43168 33904 ft 393 kts
2026-04-27 21:10 65.51457 13.44382 33628 ft 391 kts
2026-04-27 21:10 65.54147 13.45460 33347 ft 391 kts
2026-04-27 21:11 65.56836 13.46546 33082 ft 392 kts
2026-04-27 21:11 65.59542 13.47651 32810 ft 393 kts
2026-04-27 21:11 65.62237 13.48758 32545 ft 393 kts
2026-04-27 21:11 65.64940 13.49875 32281 ft 394 kts
2026-04-27 21:12 65.67641 13.50996 32038 ft 394 kts
2026-04-27 21:12 65.70349 13.52115 31779 ft 395 kts
2026-04-27 21:12 65.73065 13.53229 31523 ft 396 kts
2026-04-27 21:12 65.75781 13.54345 31270 ft 396 kts
2026-04-27 21:13 65.78502 13.55469 31016 ft 397 kts
2026-04-27 21:13 65.81192 13.56590 30766 ft 397 kts
2026-04-27 21:13 65.83916 13.57732 30518 ft 398 kts
2026-04-27 21:13 65.86650 13.58880 30226 ft 398 kts
2026-04-27 21:14 65.89381 13.60016 29933 ft 399 kts
2026-04-27 21:14 65.92125 13.61159 29641 ft 400 kts
2026-04-27 21:14 65.94871 13.62309 29352 ft 401 kts
2026-04-27 21:14 65.97618 13.63462 29096 ft 401 kts
2026-04-27 21:15 66.00364 13.64618 28809 ft 400 kts
2026-04-27 21:15 66.03112 13.65786 28526 ft 400 kts
2026-04-27 21:15 66.05859 13.66960 28253 ft 401 kts
2026-04-27 21:15 66.08611 13.68134 27980 ft 402 kts
2026-04-27 21:16 66.10436 13.68908 27796 ft 402 kts
2026-04-27 21:16 66.13236 13.70096 27527 ft 403 kts
2026-04-27 21:16 66.16000 13.71275 27188 ft 402 kts
2026-04-27 21:16 66.18750 13.72458 26193 ft 402 kts
2026-04-27 21:17 66.21480 13.73627 25006 ft 406 kts
2026-04-27 21:17 66.24280 13.74827 23952 ft 409 kts
2026-04-27 21:17 66.27058 13.76117 23046 ft 405 kts 10°
2026-04-27 21:17 66.29729 13.78278 22223 ft 404 kts 18°
2026-04-27 21:18 66.32233 13.81435 21390 ft 404 kts 25°
2026-04-27 21:18 66.34653 13.84931 20578 ft 400 kts 25°
2026-04-27 21:18 66.37057 13.88387 19833 ft 396 kts 25°
2026-04-27 21:18 66.39437 13.91799 19112 ft 392 kts 25°
2026-04-27 21:19 66.41793 13.95179 18387 ft 389 kts 25°
2026-04-27 21:19 66.44129 13.98543 17589 ft 385 kts 25°
2026-04-27 21:19 66.46442 14.01886 16808 ft 382 kts 25°
2026-04-27 21:20 66.51000 14.08507 15356 ft 376 kts 26°
2026-04-27 21:20 66.53252 14.11787 14676 ft 372 kts 26°
2026-04-27 21:20 66.55487 14.15049 13964 ft 370 kts 26°
2026-04-27 21:20 66.57676 14.18250 13177 ft 367 kts 26°
2026-04-27 21:21 66.59876 14.21472 12439 ft 365 kts 26°
2026-04-27 21:21 66.62059 14.24680 11718 ft 362 kts 26°
2026-04-27 21:21 66.64223 14.27868 10988 ft 359 kts 27°
2026-04-27 21:21 66.66382 14.31053 10307 ft 357 kts 27°
2026-04-27 21:22 66.68473 14.34147 10160 ft 339 kts 27°
2026-04-27 21:22 66.70493 14.37111 9637 ft 331 kts 25°
2026-04-27 21:22 66.72516 14.39547 9492 ft 313 kts 22°
2026-04-27 21:22 66.74451 14.41812 9354 ft 299 kts 22°
2026-04-27 21:23 66.76286 14.43974 9206 ft 279 kts 22°
2026-04-27 21:23 66.77981 14.45982 9038 ft 262 kts 21°
2026-04-27 21:23 66.79611 14.47905 8742 ft 256 kts 21°
2026-04-27 21:23 66.81233 14.49723 8344 ft 253 kts 16°
2026-04-27 21:24 66.82934 14.50741 7896 ft 250 kts
2026-04-27 21:24 66.84639 14.50811 7456 ft 247 kts 352°
2026-04-27 21:24 66.86325 14.49954 7021 ft 248 kts 341°
2026-04-27 21:24 66.87896 14.48201 6607 ft 247 kts 330°
2026-04-27 21:25 66.89285 14.45642 6118 ft 248 kts 318°
2026-04-27 21:25 66.90579 14.42698 5644 ft 250 kts 319°
2026-04-27 21:25 66.91879 14.39744 5223 ft 250 kts 319°
2026-04-27 21:25 66.93170 14.36806 4801 ft 248 kts 319°
2026-04-27 21:26 66.94455 14.33878 4391 ft 246 kts 319°
2026-04-27 21:26 66.95731 14.30963 4254 ft 248 kts 319°
2026-04-27 21:26 66.97018 14.28019 4127 ft 248 kts 319°
2026-04-27 21:26 66.98305 14.25078 3995 ft 248 kts 319°
2026-04-27 21:27 66.99589 14.22136 3860 ft 248 kts 319°
2026-04-27 21:27 67.00875 14.19183 3732 ft 247 kts 319°
2026-04-27 21:27 67.02154 14.16246 3601 ft 247 kts 319°
2026-04-27 21:27 67.03432 14.13310 3462 ft 246 kts 319°
2026-04-27 21:28 67.04704 14.10378 3438 ft 246 kts 319°
2026-04-27 21:28 67.05979 14.07434 3433 ft 247 kts 319°
2026-04-27 21:28 67.07253 14.04484 3429 ft 247 kts 319°
2026-04-27 21:28 67.08525 14.01527 3423 ft 247 kts 319°
2026-04-27 21:29 67.09797 13.98567 3425 ft 247 kts 319°
2026-04-27 21:29 67.11058 13.95633 3425 ft 239 kts 319°
2026-04-27 21:29 67.12244 13.92872 3396 ft 223 kts 319°
2026-04-27 21:29 67.13387 13.90359 3257 ft 217 kts 328°
2026-04-27 21:30 67.14797 13.89004 3138 ft 215 kts 353°
2026-04-27 21:30 67.16254 13.89319 3039 ft 215 kts 17°
2026-04-27 21:30 67.17591 13.91046 3003 ft 216 kts 28°
2026-04-27 21:30 67.18894 13.92984 3005 ft 216 kts 28°
2026-04-27 21:31 67.20217 13.94947 3007 ft 217 kts 28°
2026-04-27 21:31 67.21506 13.96865 2971 ft 208 kts 28°
2026-04-27 21:31 67.22718 13.98694 2931 ft 198 kts 32°
2026-04-27 21:31 67.23690 14.01203 2653 ft 201 kts 56°
2026-04-27 21:32 67.24209 14.04560 2389 ft 204 kts 76°
2026-04-27 21:32 67.24516 14.08154 2125 ft 206 kts 76°
2026-04-27 21:32 67.24824 14.11770 1822 ft 205 kts 76°
2026-04-27 21:32 67.25126 14.15305 1558 ft 196 kts 76°
2026-04-27 21:33 67.25408 14.18631 1277 ft 183 kts 76°
2026-04-27 21:33 67.25673 14.21750 1001 ft 173 kts 76°
2026-04-27 21:33 67.25926 14.24733 786 ft 167 kts 75°
2026-04-27 21:33 67.26171 14.27651 532 ft 165 kts 76°
2026-04-27 21:34 67.26417 14.30533 271 ft 163 kts 75°
2026-04-27 21:34 67.26656 14.33374 57 ft 162 kts 76°
2026-04-27 21:34 67.26882 14.36033 57 ft 135 kts 76°
2026-04-27 21:34 67.27052 14.38064 50 ft 91 kts 78°
2026-04-27 21:35 67.27152 14.39223 53 ft 43 kts 76°
2026-04-27 21:35 67.27169 14.39614 51 ft 2 kts 93°
2026-04-27 21:35 67.27121 14.39736 53 ft 16 kts 161°
2026-04-27 21:35 67.27048 14.39606 53 ft 16 kts 254°
2026-04-27 21:36 67.27004 14.39087 52 ft 42 kts 258°
2026-04-27 21:36 67.26952 14.38407 50 ft 12 kts 259°
2026-04-27 21:36 67.26948 14.38362 49 ft 11 kts 255°
2026-04-27 21:36 67.26897 14.37808 45 ft 46 kts 258°
2026-04-27 21:37 67.26834 14.37019 45 ft 33 kts 258°
2026-04-27 21:37 67.26805 14.36684 43 ft 3 kts 259°
2026-04-27 21:37 67.26833 14.36581 43 ft 12 kts 334°
2026-04-27 21:37 67.26919 14.36523 42 ft 16 kts 348°
2026-04-27 21:38 67.27031 14.36486 43 ft 16 kts 21°
2026-04-27 21:38 67.27127 14.36653 43 ft 17 kts 34°
2026-04-27 21:38 67.27142 14.36678 44 ft 0 kts 33°